Location: Ingoldesthorpe
(52.8667°N, 0.5167°E)
Time: 22:17:57
(UTC+00:00)

Cosmos 1934 Rocket - Pass Details

Date: 19 May 2025
Orbit: 938 x 997 km, 83.0° (Epoch: 18 June)

Event Time Altitude Azimuth Distance (km) Brightness Sun altitude
Rises 23:07:27 0° 347° (NNW) 3,667 8.9 -16.4°
Reaches altitude 10° 23:09:58 10° 345° (NNW) 2,724 7.7 -16.5°
Maximum altitude 23:16:07 63° 266° (W) 1,091 4.3 -16.7°
Enters shadow 23:20:04 23° 192° (SSW) 1,944 5.0 -16.8°
